Terug naar catalogus

EXPLORER 7

ActiefWetenschapVLEO
NORAD 22·PAYLOAD·🇺🇸 United States

Gelanceerd Oct 13, 1959 vanaf Cape Canaveral Space Force Station

Loading…

Volgende Passages (komende 24 uur)

TLE

VersSource: Space-Track

Epoch: Sep 9, 2026, 22:24 UTC

1 00022U 59009A   26252.93378635  .00011930  00000-0  37571-3 0  9998
2 00022  50.2426  40.4757 0074199 107.6141 253.2941 15.30656765813329

Volg EXPLORER 7 in realtime met AllMySat

Download on the App Store